| time (UTC) | temp F | wind direction | speed MPH | gust MPH | rain 1hr in | rain 24hr in | rain mn in | humidity % | barometer mb |
| 20260510094027 | 81 | 360 | 5.0 | 10.0 | 0.00 | 0.00 | 0.00 | 11 | 1013.2 |
| 20260510093528 | 82 | 360 | 5.0 | 10.0 | 0.00 | 0.00 | 0.00 | 10 | 1013.0 |
| 20260510093027 | 82 | 271 | 4.0 | 7.0 | 0.00 | 0.00 | 0.00 | 10 | 1013.0 |
| 20260510092527 | 83 | 360 | 2.0 | 7.0 | 0.00 | 0.00 | 0.00 | 9 | 1013.2 |
| 20260510092028 | 83 | 360 | 3.0 | 4.0 | 0.00 | 0.00 | 0.00 | 9 | 1013.1 |
| 20260510091527 | 83 | 277 | 1.0 | 8.0 | 0.00 | 0.00 | 0.00 | 9 | 1013.1 |
| 20260510091027 | 83 | 276 | 4.0 | 8.0 | 0.00 | 0.00 | 0.00 | 9 | 1013.0 |
| 20260510090527 | 84 | 360 | 6.0 | 7.0 | 0.00 | 0.00 | 0.00 | 9 | 1012.9 |
| 20260510085527 | 84 | 298 | 3.0 | 6.0 | 0.00 | 0.00 | 0.00 | 9 | 1012.9 |
| 20260510085027 | 85 | 293 | 1.0 | 9.0 | 0.00 | 0.00 | 0.00 | 9 | 1012.8 |
| 20260510084528 | 85 | 360 | 3.0 | 12.0 | 0.00 | 0.00 | 0.00 | 8 | 1012.7 |
| 20260510084029 | 85 | 252 | 1.0 | 13.0 | 0.00 | 0.00 | 0.00 | 8 | 1012.7 |
| 20260510083527 | 85 | 360 | 7.0 | 13.0 | 0.00 | 0.00 | 0.00 | 8 | 1012.6 |
| 20260510083028 | 85 | 360 | 13.0 | 13.0 | 0.00 | 0.00 | 0.00 | 8 | 1012.6 |
| 20260510082527 | 85 | 360 | 6.0 | 9.0 | 0.00 | 0.00 | 0.00 | 8 | 1012.5 |
| 20260510082027 | 86 | 360 | 6.0 | 7.0 | 0.00 | 0.00 | 0.00 | 9 | 1012.6 |
| 20260510081528 | 86 | 88 | 1.0 | 8.0 | 0.00 | 0.00 | 0.00 | 9 | 1012.5 |
| 20260510081028 | 86 | 88 | 1.0 | 14.0 | 0.00 | 0.00 | 0.00 | 9 | 1012.6 |
| 20260510080527 | 86 | 325 | 4.0 | 14.0 | 0.00 | 0.00 | 0.00 | 9 | 1012.5 |
| 20260510075527 | 86 | 221 | 3.0 | 12.0 | 0.00 | 0.00 | 0.00 | 9 | 1012.7 |
| 20260510075027 | 86 | 225 | 3.0 | 12.0 | 0.00 | 0.00 | 0.00 | 9 | 1012.6 |
| 20260510074527 | 86 | 360 | 5.0 | 13.0 | 0.00 | 0.00 | 0.00 | 8 | 1012.7 |
| 20260510074027 | 86 | 209 | 3.0 | 13.0 | 0.00 | 0.00 | 0.00 | 9 | 1012.7 |
| 20260510073527 | 86 | 360 | 9.0 | 18.0 | 0.00 | 0.00 | 0.00 | 9 | 1012.5 |
| 20260510073027 | 85 | 360 | 4.0 | 18.0 | 0.00 | 0.00 | 0.00 | 9 | 1012.3 |
| 20260510072527 | 85 | 360 | 12.0 | 17.0 | 0.00 | 0.00 | 0.00 | 9 | 1012.2 |
| 20260510072027 | 85 | 360 | 7.0 | 15.0 | 0.00 | 0.00 | 0.00 | 9 | 1012.4 |
| 20260510071527 | 84 | 360 | 9.0 | 12.0 | 0.00 | 0.00 | 0.00 | 9 | 1012.3 |
| 20260510070527 | 83 | 360 | 11.0 | 11.0 | 0.00 | 0.00 | 0.00 | 10 | 1012.1 |
| 20260510065527 | 82 | 360 | 3.0 | 9.0 | 0.00 | 0.00 | 0.00 | 11 | 1011.8 |
| 20260510065027 | 82 | 227 | 3.0 | 9.0 | 0.00 | 0.00 | 0.00 | 11 | 1011.7 |
| 20260510064527 | 82 | 360 | 6.0 | 6.0 | 0.00 | 0.00 | 0.00 | 12 | 1011.8 |
| 20260510064027 | 83 | 360 | 1.0 | 4.0 | 0.00 | 0.00 | 0.00 | 12 | 1011.9 |
| 20260510063527 | 83 | 234 | 0.0 | 4.0 | 0.00 | 0.00 | 0.00 | 11 | 1011.9 |
| 20260510063027 | 83 | 360 | 2.0 | 4.0 | 0.00 | 0.00 | 0.00 | 12 | 1011.8 |
| 20260510062028 | 84 | 204 | 1.0 | 10.0 | 0.00 | 0.00 | 0.00 | 11 | 1011.8 |
| 20260510061028 | 84 | 360 | 6.0 | 9.0 | 0.00 | 0.00 | 0.00 | 11 | 1011.7 |
| 20260510060528 | 84 | 360 | 4.0 | 8.0 | 0.00 | 0.00 | 0.00 | 11 | 1011.7 |
| 20260510060028 | 85 | 360 | 5.0 | 9.0 | 0.00 | 0.00 | 0.00 | 11 | 1011.9 |
| 20260510055527 | 85 | 360 | 6.0 | 9.0 | 0.00 | 0.00 | 0.00 | 11 | 1011.6 |
| 20260510055027 | 85 | 360 | 5.0 | 11.0 | 0.00 | 0.00 | 0.00 | 10 | 1011.6 |
| 20260510054527 | 85 | 360 | 4.0 | 11.0 | 0.00 | 0.00 | 0.00 | 11 | 1011.6 |
| 20260510054027 | 84 | 360 | 7.0 | 11.0 | 0.00 | 0.00 | 0.00 | 11 | 1011.2 |
| 20260510053527 | 84 | 360 | 3.0 | 8.0 | 0.00 | 0.00 | 0.00 | 11 | 1011.2 |
| 20260510053027 | 85 | 360 | 5.0 | 8.0 | 0.00 | 0.00 | 0.00 | 11 | 1011.4 |
| 20260510052027 | 85 | 360 | 3.0 | 8.0 | 0.00 | 0.00 | 0.00 | 11 | 1011.3 |
| 20260510051527 | 85 | 360 | 3.0 | 7.0 | 0.00 | 0.00 | 0.00 | 11 | 1011.2 |
| 20260510050528 | 85 | 360 | 1.0 | 3.0 | 0.00 | 0.00 | 0.00 | 11 | 1011.3 |
| 20260510050028 | 86 | 360 | 2.0 | 4.0 | 0.00 | 0.00 | 0.00 | 11 | 1011.3 |
| 20260510045527 | 86 | 360 | 1.0 | 4.0 | 0.00 | 0.00 | 0.00 | 11 | 1011.1 |
| 20260510045028 | 86 | 360 | 1.0 | 5.0 | 0.00 | 0.00 | 0.00 | 11 | 1011.1 |
| 20260510044027 | 86 | 360 | 2.0 | 8.0 | 0.00 | 0.00 | 0.00 | 11 | 1011.2 |
| 20260510043527 | 87 | 360 | 7.0 | 7.0 | 0.00 | 0.00 | 0.00 | 11 | 1011.0 |
| 20260510043027 | 87 | 360 | 3.0 | 4.0 | 0.00 | 0.00 | 0.00 | 11 | 1010.8 |
| 20260510042527 | 88 | 360 | 0.0 | 4.0 | 0.00 | 0.00 | 0.00 | 10 | 1010.7 |
| 20260510040528 | 89 | 360 | 3.0 | 4.0 | 0.00 | 0.00 | 0.00 | 10 | 1010.6 |
| 20260510040027 | 89 | 360 | 2.0 | 3.0 | 0.00 | 0.00 | 0.00 | 11 | 1010.5 |
| 20260510035527 | 89 | 360 | 2.0 | 5.0 | 0.00 | 0.00 | 0.00 | 11 | 1010.2 |
| 20260510035027 | 90 | 360 | 2.0 | 5.0 | 0.00 | 0.00 | 0.00 | 10 | 1010.2 |
| 20260510034027 | 90 | 360 | 2.0 | 5.0 | 0.00 | 0.00 | 0.00 | 10 | 1010.0 |
| 20260510032527 | 91 | 360 | 2.0 | 5.0 | 0.00 | 0.00 | 0.00 | 9 | 1010.0 |
| 20260510032027 | 91 | 360 | 1.0 | 4.0 | 0.00 | 0.00 | 0.00 | 9 | 1009.9 |
| 20260510031527 | 92 | 360 | 4.0 | 4.0 | 0.00 | 0.00 | 0.00 | 9 | 1009.8 |
| 20260510031027 | 92 | 360 | 1.0 | 6.0 | 0.00 | 0.00 | 0.00 | 9 | 1009.8 |
| 20260510030527 | 92 | 360 | 2.0 | 6.0 | 0.00 | 0.00 | 0.00 | 9 | 1009.8 |
| 20260510025527 | 93 | 360 | 2.0 | 8.0 | 0.00 | 0.00 | 0.00 | 9 | 1009.5 |
| 20260510025027 | 93 | 360 | 3.0 | 5.0 | 0.00 | 0.00 | 0.00 | 9 | 1009.3 |
| 20260510024527 | 94 | 360 | 1.0 | 10.0 | 0.00 | 0.00 | 0.00 | 9 | 1009.3 |
| 20260510024027 | 94 | 360 | 3.0 | 11.0 | 0.00 | 0.00 | 0.00 | 9 | 1009.4 |
| 20260510023527 | 94 | 360 | 7.0 | 11.0 | 0.00 | 0.00 | 0.00 | 8 | 1009.2 |
| 20260510023026 | 95 | 51 | 9.0 | 9.0 | 0.00 | 0.00 | 0.00 | 8 | 1009.3 |
| 20260510022527 | 95 | 340 | 2.0 | 7.0 | 0.00 | 0.00 | 0.00 | 8 | 1009.2 |
| 20260510021027 | 95 | 280 | 4.0 | 5.0 | 0.00 | 0.00 | 0.00 | 8 | 1009.2 |
| 20260510020526 | 95 | 360 | 2.0 | 5.0 | 0.00 | 0.00 | 0.00 | 7 | 1009.4 |
| 20260510020027 | 95 | 360 | 3.0 | 5.0 | 0.00 | 0.00 | 0.00 | 7 | 1009.2 |
| 20260510014527 | 96 | 229 | 1.0 | 5.0 | 0.00 | 0.00 | 0.00 | 9 | 1008.7 |
| 20260510014026 | 96 | 229 | 2.0 | 7.0 | 0.00 | 0.00 | 0.00 | 8 | 1008.7 |
| 20260510013527 | 97 | 360 | 4.0 | 7.0 | 0.00 | 0.00 | 0.00 | 8 | 1008.8 |
| 20260510013027 | 97 | 360 | 2.0 | 7.0 | 0.00 | 0.00 | 0.00 | 8 | 1008.6 |
| 20260510012526 | 97 | 223 | 3.0 | 10.0 | 0.00 | 0.00 | 0.00 | 9 | 1008.6 |
| 20260510012027 | 97 | 360 | 4.0 | 10.0 | 0.00 | 0.00 | 0.00 | 8 | 1008.7 |
| 20260510011527 | 97 | 360 | 3.0 | 10.0 | 0.00 | 0.00 | 0.00 | 8 | 1008.7 |
| 20260510011027 | 97 | 360 | 5.0 | 10.0 | 0.00 | 0.00 | 0.00 | 8 | 1008.7 |
| 20260510010026 | 98 | 360 | 7.0 | 11.0 | 0.00 | 0.00 | 0.00 | 8 | 1008.7 |
| 20260510005527 | 98 | 360 | 3.0 | 11.0 | 0.00 | 0.00 | 0.00 | 8 | 1008.3 |
| 20260510005028 | 97 | 247 | 2.0 | 8.0 | 0.00 | 0.00 | 0.00 | 7 | 1008.4 |
| 20260510004027 | 98 | 360 | 5.0 | 11.0 | 0.00 | 0.00 | 0.00 | 8 | 1008.4 |
| 20260510003526 | 98 | 360 | 8.0 | 11.0 | 0.00 | 0.00 | 0.00 | 8 | 1008.4 |
| 20260510003026 | 98 | 360 | 4.0 | 9.0 | 0.00 | 0.00 | 0.00 | 8 | 1008.5 |
| 20260510002027 | 98 | 360 | 8.0 | 10.0 | 0.00 | 0.00 | 0.00 | 8 | 1008.6 |
| 20260510001526 | 97 | 360 | 1.0 | 10.0 | 0.00 | 0.00 | 0.00 | 8 | 1008.3 |
| 20260510001027 | 97 | 360 | 5.0 | 13.0 | 0.00 | 0.00 | 0.00 | 8 | 1008.4 |
| 20260510000527 | 98 | 192 | 3.0 | 14.0 | 0.00 | 0.00 | 0.00 | 8 | 1008.4 |
| 20260509235527 | 98 | 360 | 8.0 | 14.0 | 0.00 | 0.00 | 0.00 | 8 | 1008.9 |
| 20260509234526 | 98 | 210 | 5.0 | 14.0 | 0.00 | 0.00 | 0.00 | 8 | 1008.9 |
| 20260509234026 | 98 | 360 | 11.0 | 15.0 | 0.00 | 0.00 | 0.00 | 8 | 1008.9 |
| 20260509233526 | 98 | 360 | 8.0 | 15.0 | 0.00 | 0.00 | 0.00 | 8 | 1009.0 |
| 20260509233027 | 98 | 360 | 8.0 | 14.0 | 0.00 | 0.00 | 0.00 | 8 | 1009.0 |
| 20260509232527 | 98 | 360 | 3.0 | 13.0 | 0.00 | 0.00 | 0.00 | 8 | 1009.0 |
| 20260509232027 | 98 | 360 | 6.0 | 13.0 | 0.00 | 0.00 | 0.00 | 8 | 1009.1 |
| 20260509231526 | 98 | 360 | 5.0 | 13.0 | 0.00 | 0.00 | 0.00 | 8 | 1009.1 |
| 20260509231026 | 98 | 360 | 8.0 | 12.0 | 0.00 | 0.00 | 0.00 | 8 | 1009.2 |
| 20260509230528 | 98 | 186 | 3.0 | 7.0 | 0.00 | 0.00 | 0.00 | 8 | 1009.2 |
| 20260509230027 | 98 | 360 | 3.0 | 7.0 | 0.00 | 0.00 | 0.00 | 8 | 1009.3 |
| 20260509225527 | 98 | 360 | 4.0 | 8.0 | 0.00 | 0.00 | 0.00 | 8 | 1009.5 |
| 20260509225026 | 98 | 200 | 0.0 | 11.0 | 0.00 | 0.00 | 0.00 | 8 | 1009.6 |
| 20260509224027 | 98 | 360 | 6.0 | 8.0 | 0.00 | 0.00 | 0.00 | 7 | 1009.7 |
| 20260509223027 | 98 | 360 | 2.0 | 9.0 | 0.00 | 0.00 | 0.00 | 7 | 1009.9 |
| 20260509222526 | 98 | 360 | 2.0 | 11.0 | 0.00 | 0.00 | 0.00 | 8 | 1010.0 |
| 20260509222026 | 99 | 217 | 6.0 | 11.0 | 0.00 | 0.00 | 0.00 | 8 | 1010.2 |
| 20260509221527 | 98 | 360 | 2.0 | 8.0 | 0.00 | 0.00 | 0.00 | 8 | 1010.0 |
| 20260509221026 | 97 | 360 | 2.0 | 8.0 | 0.00 | 0.00 | 0.00 | 8 | 1010.2 |
| 20260509220528 | 97 | 360 | 8.0 | 8.0 | 0.00 | 0.00 | 0.00 | 8 | 1010.3 |
| 20260509220027 | 97 | 360 | 3.0 | 9.0 | 0.00 | 0.00 | 0.00 | 8 | 1010.4 |
| 20260509215527 | 98 | 360 | 5.0 | 12.0 | 0.00 | 0.00 | 0.00 | 8 | 1010.7 |
| 20260509215027 | 98 | 360 | 4.0 | 12.0 | 0.00 | 0.00 | 0.00 | 8 | 1010.7 |
| 20260509214527 | 98 | 218 | 4.0 | 12.0 | 0.00 | 0.00 | 0.00 | 8 | 1011.0 |
| 20260509214026 | 99 | 360 | 4.0 | 12.0 | 0.00 | 0.00 | 0.00 | 8 | 1010.8 |
| 20260509213526 | 99 | 360 | 4.0 | 10.0 | 0.00 | 0.00 | 0.00 | 8 | 1010.9 |
| 20260509213028 | 98 | 360 | 4.0 | 9.0 | 0.00 | 0.00 | 0.00 | 8 | 1011.3 |
| 20260509212027 | 97 | 178 | 2.0 | 8.0 | 0.00 | 0.00 | 0.00 | 8 | 1011.1 |
| 20260509211026 | 99 | 360 | 4.0 | 8.0 | 0.00 | 0.00 | 0.00 | 8 | 1011.6 |
| 20260509210026 | 97 | 234 | 2.0 | 6.0 | 0.00 | 0.00 | 0.00 | 8 | 1011.6 |
| 20260509205526 | 97 | 360 | 4.0 | 8.0 | 0.00 | 0.00 | 0.00 | 8 | 1011.6 |
| 20260509205026 | 98 | 180 | 2.0 | 8.0 | 0.00 | 0.00 | 0.00 | 8 | 1011.8 |
| 20260509204026 | 97 | 360 | 3.0 | 8.0 | 0.00 | 0.00 | 0.00 | 8 | 1011.8 |
| 20260509203528 | 97 | 360 | 2.0 | 8.0 | 0.00 | 0.00 | 0.00 | 8 | 1011.8 |
| 20260509203026 | 97 | 360 | 5.0 | 8.0 | 0.00 | 0.00 | 0.00 | 9 | 1011.8 |
| 20260509202527 | 98 | 360 | 3.0 | 9.0 | 0.00 | 0.00 | 0.00 | 8 | 1012.0 |
| 20260509202026 | 97 | 360 | 3.0 | 9.0 | 0.00 | 0.00 | 0.00 | 8 | 1012.0 |
| 20260509201526 | 96 | 360 | 0.0 | 6.0 | 0.00 | 0.00 | 0.00 | 9 | 1012.0 |
| 20260509201026 | 97 | 360 | 2.0 | 8.0 | 0.00 | 0.00 | 0.00 | 8 | 1012.1 |
| 20260509200526 | 97 | 360 | 2.0 | 8.0 | 0.00 | 0.00 | 0.00 | 8 | 1012.0 |
| 20260509200027 | 98 | 360 | 2.0 | 7.0 | 0.00 | 0.00 | 0.00 | 8 | 1012.2 |
| 20260509195526 | 97 | 360 | 3.0 | 5.0 | 0.00 | 0.00 | 0.00 | 8 | 1012.2 |
| 20260509195027 | 97 | 55 | 3.0 | 6.0 | 0.00 | 0.00 | 0.00 | 8 | 1012.3 |
| 20260509194526 | 96 | 360 | 1.0 | 7.0 | 0.00 | 0.00 | 0.00 | 9 | 1012.3 |
| 20260509194026 | 96 | 360 | 5.0 | 7.0 | 0.00 | 0.00 | 0.00 | 9 | 1012.4 |
| 20260509193526 | 96 | 128 | 2.0 | 6.0 | 0.00 | 0.00 | 0.00 | 9 | 1012.4 |
| 20260509193027 | 97 | 152 | 3.0 | 6.0 | 0.00 | 0.00 | 0.00 | 9 | 1012.5 |
| 20260509192526 | 96 | 360 | 1.0 | 6.0 | 0.00 | 0.00 | 0.00 | 9 | 1012.4 |
| 20260509192026 | 96 | 360 | 3.0 | 7.0 | 0.00 | 0.00 | 0.00 | 8 | 1012.4 |
| 20260509191526 | 96 | 140 | 1.0 | 10.0 | 0.00 | 0.00 | 0.00 | 9 | 1012.8 |
| 20260509191026 | 96 | 360 | 5.0 | 10.0 | 0.00 | 0.00 | 0.00 | 9 | 1012.7 |
| 20260509190526 | 96 | 360 | 2.0 | 7.0 | 0.00 | 0.00 | 0.00 | 9 | 1013.0 |
| 20260509190027 | 95 | 109 | 2.0 | 7.0 | 0.00 | 0.00 | 0.00 | 9 | 1013.0 |
| 20260509185026 | 95 | 45 | 1.0 | 8.0 | 0.00 | 0.00 | 0.00 | 9 | 1013.1 |
| 20260509184526 | 94 | 76 | 2.0 | 9.0 | 0.00 | 0.00 | 0.00 | 9 | 1013.2 |
| 20260509184028 | 94 | 91 | 6.0 | 9.0 | 0.00 | 0.00 | 0.00 | 9 | 1013.2 |
| 20260509183526 | 94 | 178 | 2.0 | 9.0 | 0.00 | 0.00 | 0.00 | 9 | 1013.3 |
| 20260509183026 | 95 | 360 | 6.0 | 7.0 | 0.00 | 0.00 | 0.00 | 9 | 1013.4 |
| 20260509182527 | 94 | 360 | 3.0 | 7.0 | 0.00 | 0.00 | 0.00 | 10 | 1013.3 |
| 20260509182026 | 94 | 360 | 2.0 | 7.0 | 0.00 | 0.00 | 0.00 | 9 | 1013.4 |
| 20260509181526 | 94 | 360 | 5.0 | 7.0 | 0.00 | 0.00 | 0.00 | 9 | 1013.4 |
| 20260509180526 | 93 | 61 | 2.0 | 6.0 | 0.00 | 0.00 | 0.00 | 10 | 1013.3 |
| 20260509180026 | 93 | 91 | 2.0 | 7.0 | 0.00 | 0.00 | 0.00 | 9 | 1013.2 |
| 20260509175526 | 93 | 71 | 2.0 | 7.0 | 0.00 | 0.00 | 0.00 | 9 | 1013.5 |
| 20260509175026 | 92 | 95 | 1.0 | 6.0 | 0.00 | 0.00 | 0.00 | 9 | 1013.5 |
| 20260509174027 | 92 | 102 | 0.0 | 7.0 | 0.00 | 0.00 | 0.00 | 9 | 1013.5 |
| 20260509173526 | 92 | 360 | 3.0 | 7.0 | 0.00 | 0.00 | 0.00 | 9 | 1013.6 |
| 20260509173026 | 92 | 63 | 7.0 | 7.0 | 0.00 | 0.00 | 0.00 | 10 | 1013.6 |
| 20260509172526 | 92 | 86 | 3.0 | 5.0 | 0.00 | 0.00 | 0.00 | 9 | 1013.5 |
| 20260509172026 | 92 | 26 | 0.0 | 7.0 | 0.00 | 0.00 | 0.00 | 10 | 1013.5 |
| 20260509171026 | 91 | 16 | 5.0 | 5.0 | 0.00 | 0.00 | 0.00 | 9 | 1013.5 |
| 20260509170526 | 91 | 54 | 3.0 | 5.0 | 0.00 | 0.00 | 0.00 | 10 | 1013.4 |
| 20260509170026 | 91 | 50 | 5.0 | 8.0 | 0.00 | 0.00 | 0.00 | 10 | 1013.5 |
| 20260509165526 | 91 | 51 | 3.0 | 8.0 | 0.00 | 0.00 | 0.00 | 10 | 1013.6 |
| 20260509165028 | 90 | 350 | 4.0 | 7.0 | 0.00 | 0.00 | 0.00 | 10 | 1013.4 |
| 20260509164526 | 91 | 21 | 4.0 | 8.0 | 0.00 | 0.00 | 0.00 | 10 | 1013.5 |
| 20260509164026 | 90 | 37 | 3.0 | 8.0 | 0.00 | 0.00 | 0.00 | 10 | 1013.4 |
| 20260509163526 | 89 | 9 | 5.0 | 8.0 | 0.00 | 0.00 | 0.00 | 10 | 1013.4 |
| 20260509162526 | 89 | 304 | 4.0 | 8.0 | 0.00 | 0.00 | 0.00 | 10 | 1013.4 |
| 20260509162026 | 88 | 360 | 5.0 | 10.0 | 0.00 | 0.00 | 0.00 | 10 | 1013.2 |
| 20260509161526 | 88 | 360 | 5.0 | 12.0 | 0.00 | 0.00 | 0.00 | 10 | 1013.3 |
| 20260509161026 | 88 | 280 | 1.0 | 12.0 | 0.00 | 0.00 | 0.00 | 10 | 1013.3 |
| 20260509160526 | 87 | 360 | 8.0 | 11.0 | 0.00 | 0.00 | 0.00 | 10 | 1013.2 |
| 20260509160026 | 87 | 360 | 2.0 | 12.0 | 0.00 | 0.00 | 0.00 | 10 | 1013.2 |
| 20260509155526 | 86 | 310 | 5.0 | 12.0 | 0.00 | 0.00 | 0.00 | 11 | 1013.3 |
| 20260509154526 | 86 | 360 | 3.0 | 12.0 | 0.00 | 0.00 | 0.00 | 11 | 1013.2 |
| 20260509152526 | 85 | 360 | 10.0 | 12.0 | 0.00 | 0.00 | 0.00 | 12 | 1013.3 |
| 20260509152026 | 85 | 289 | 8.0 | 12.0 | 0.00 | 0.00 | 0.00 | 11 | 1013.4 |
| 20260509151526 | 85 | 321 | 5.0 | 10.0 | 0.00 | 0.00 | 0.00 | 11 | 1013.4 |
| 20260509150526 | 84 | 360 | 8.0 | 10.0 | 0.00 | 0.00 | 0.00 | 13 | 1013.2 |
| 20260509150026 | 83 | 360 | 3.0 | 9.0 | 0.00 | 0.00 | 0.00 | 13 | 1013.3 |
| 20260509145525 | 82 | 360 | 3.0 | 9.0 | 0.00 | 0.00 | 0.00 | 13 | 1013.5 |
| 20260509145026 | 81 | 360 | 3.0 | 6.0 | 0.00 | 0.00 | 0.00 | 14 | 1013.4 |
| 20260509144526 | 81 | 360 | 2.0 | 6.0 | 0.00 | 0.00 | 0.00 | 13 | 1013.3 |
| 20260509144025 | 80 | 360 | 3.0 | 8.0 | 0.00 | 0.00 | 0.00 | 14 | 1013.3 |
| 20260509143526 | 81 | 242 | 5.0 | 8.0 | 0.00 | 0.00 | 0.00 | 13 | 1013.3 |
| 20260509143026 | 81 | 360 | 3.0 | 6.0 | 0.00 | 0.00 | 0.00 | 13 | 1013.2 |
| 20260509142526 | 80 | 360 | 4.0 | 6.0 | 0.00 | 0.00 | 0.00 | 14 | 1013.3 |
| 20260509142027 | 79 | 360 | 2.0 | 6.0 | 0.00 | 0.00 | 0.00 | 14 | 1013.2 |
| 20260509141526 | 79 | 360 | 2.0 | 6.0 | 0.00 | 0.00 | 0.00 | 14 | 1013.1 |
| 20260509141026 | 78 | 360 | 1.0 | 6.0 | 0.00 | 0.00 | 0.00 | 14 | 1013.1 |
| 20260509140526 | 76 | 360 | 3.0 | 8.0 | 0.00 | 0.00 | 0.00 | 14 | 1012.8 |
| 20260509140025 | 76 | 360 | 2.0 | 8.0 | 0.00 | 0.00 | 0.00 | 15 | 1012.8 |
| 20260509135526 | 75 | 360 | 3.0 | 8.0 | 0.00 | 0.00 | 0.00 | 14 | 1012.9 |
| 20260509135026 | 75 | 360 | 5.0 | 8.0 | 0.00 | 0.00 | 0.00 | 14 | 1012.9 |
| 20260509134525 | 75 | 360 | 6.0 | 7.0 | 0.00 | 0.00 | 0.00 | 14 | 1012.8 |
| 20260509134027 | 74 | 360 | 3.0 | 9.0 | 0.00 | 0.00 | 0.00 | 14 | 1012.5 |
| 20260509133526 | 74 | 360 | 1.0 | 11.0 | 0.00 | 0.00 | 0.00 | 14 | 1012.5 |
| 20260509133026 | 73 | 360 | 6.0 | 11.0 | 0.00 | 0.00 | 0.00 | 14 | 1012.3 |
| 20260509132525 | 73 | 360 | 6.0 | 8.0 | 0.00 | 0.00 | 0.00 | 14 | 1012.2 |
| 20260509132025 | 73 | 267 | 4.0 | 7.0 | 0.00 | 0.00 | 0.00 | 14 | 1012.2 |
| 20260509131525 | 72 | 360 | 7.0 | 7.0 | 0.00 | 0.00 | 0.00 | 14 | 1012.0 |
| 20260509131025 | 72 | 360 | 6.0 | 9.0 | 0.00 | 0.00 | 0.00 | 15 | 1012.0 |
| 20260509130526 | 72 | 360 | 4.0 | 9.0 | 0.00 | 0.00 | 0.00 | 15 | 1012.0 |
| 20260509130025 | 72 | 304 | 3.0 | 8.0 | 0.00 | 0.00 | 0.00 | 15 | 1012.0 |
| 20260509125525 | 71 | 360 | 5.0 | 8.0 | 0.00 | 0.00 | 0.00 | 16 | 1012.0 |
| 20260509125026 | 72 | 360 | 7.0 | 8.0 | 0.00 | 0.00 | 0.00 | 16 | 1011.9 |
| 20260509124526 | 72 | 360 | 4.0 | 6.0 | 0.00 | 0.00 | 0.00 | 16 | 1011.8 |
| 20260509124026 | 72 | 360 | 3.0 | 6.0 | 0.00 | 0.00 | 0.00 | 16 | 1011.7 |
| 20260509123526 | 72 | 360 | 4.0 | 8.0 | 0.00 | 0.00 | 0.00 | 16 | 1011.7 |
| 20260509123026 | 72 | 295 | 2.0 | 8.0 | 0.00 | 0.00 | 0.00 | 15 | 1011.6 |
| 20260509122526 | 73 | 360 | 3.0 | 8.0 | 0.00 | 0.00 | 0.00 | 15 | 1011.7 |
| 20260509122026 | 73 | 360 | 4.0 | 8.0 | 0.00 | 0.00 | 0.00 | 15 | 1011.7 |
| 20260509121025 | 74 | 360 | 5.0 | 7.0 | 0.00 | 0.00 | 0.00 | 15 | 1011.6 |
| 20260509120525 | 74 | 360 | 4.0 | 9.0 | 0.00 | 0.00 | 0.00 | 15 | 1011.4 |
| 20260509120025 | 74 | 360 | 5.0 | 9.0 | 0.00 | 0.00 | 0.00 | 15 | 1011.5 |
| 20260509115526 | 74 | 277 | 4.0 | 11.0 | 0.00 | 0.00 | 0.00 | 15 | 1011.5 |
| 20260509115025 | 74 | 360 | 8.0 | 11.0 | 0.00 | 0.00 | 0.00 | 15 | 1011.4 |
| 20260509114525 | 75 | 360 | 7.0 | 9.0 | 0.00 | 0.00 | 0.00 | 15 | 1011.4 |
| 20260509114026 | 75 | 360 | 6.0 | 11.0 | 0.00 | 0.00 | 0.00 | 15 | 1011.4 |
| 20260509113026 | 75 | 360 | 7.0 | 14.0 | 0.00 | 0.00 | 0.00 | 15 | 1011.5 |
| 20260509112526 | 75 | 360 | 7.0 | 14.0 | 0.00 | 0.00 | 0.00 | 15 | 1011.5 |
| 20260509112025 | 76 | 360 | 14.0 | 14.0 | 0.00 | 0.00 | 0.00 | 15 | 1011.6 |
| 20260509111525 | 75 | 360 | 8.0 | 13.0 | 0.00 | 0.00 | 0.00 | 15 | 1011.5 |
| 20260509111026 | 75 | 360 | 9.0 | 12.0 | 0.00 | 0.00 | 0.00 | 15 | 1011.4 |
| 20260509110526 | 75 | 360 | 3.0 | 14.0 | 0.00 | 0.00 | 0.00 | 15 | 1011.3 |
| 20260509110026 | 75 | 360 | 11.0 | 14.0 | 0.00 | 0.00 | 0.00 | 15 | 1011.4 |
| 20260509105526 | 75 | 360 | 14.0 | 14.0 | 0.00 | 0.00 | 0.00 | 15 | 1011.4 |
| 20260509105025 | 75 | 360 | 8.0 | 14.0 | 0.00 | 0.00 | 0.00 | 15 | 1011.4 |
| 20260509104525 | 75 | 360 | 7.0 | 13.0 | 0.00 | 0.00 | 0.00 | 14 | 1011.1 |
| 20260509104026 | 76 | 248 | 3.0 | 15.0 | 0.00 | 0.00 | 0.00 | 14 | 1011.3 |
| 20260509103526 | 76 | 360 | 12.0 | 15.0 | 0.00 | 0.00 | 0.00 | 14 | 1011.3 |
| 20260509103026 | 76 | 360 | 4.0 | 12.0 | 0.00 | 0.00 | 0.00 | 14 | 1011.3 |
| 20260509102526 | 76 | 294 | 4.0 | 12.0 | 0.00 | 0.00 | 0.00 | 14 | 1011.2 |
| 20260509102026 | 76 | 360 | 5.0 | 10.0 | 0.00 | 0.00 | 0.00 | 14 | 1011.3 |
| 20260509101525 | 76 | 360 | 6.0 | 8.0 | 0.00 | 0.00 | 0.00 | 15 | 1011.3 |
| 20260509101026 | 76 | 360 | 6.0 | 8.0 | 0.00 | 0.00 | 0.00 | 15 | 1011.4 |
| 20260509100026 | 76 | 246 | 4.0 | 9.0 | 0.00 | 0.00 | 0.00 | 15 | 1011.5 |
| 20260509095526 | 76 | 269 | 4.0 | 9.0 | 0.00 | 0.00 | 0.00 | 15 | 1011.5 |
| 20260509095026 | 76 | 360 | 4.0 | 9.0 | 0.00 | 0.00 | 0.00 | 15 | 1011.6 |
| 20260509094525 | 76 | 360 | 4.0 | 7.0 | 0.00 | 0.00 | 0.00 | 15 | 1011.4 |